Location: ????? ????
(37.9717°N, 23.4051°E)
Time: 19:54:10
(UTC+00:00)

Iridium 4 Rocket - Pass Details

Date: 18 April 2024
Orbit: 581 x 896 km, 86.9° (Epoch: 26 May)

Event Time Altitude Azimuth Distance (km) Brightness Sun altitude
Exits shadow 19:04:51 44° 156° (SSE) 1,146 4.0 -22.1°
Maximum altitude 19:06:35 70° 89° (E) 902 3.6 -22.3°
Drops below altitude 10° 19:12:20 10° 7° (N) 2,544 6.5 -23.2°
Sets 19:14:50 0° 5° (N) 3,506 7.4 -23.6°
